This is the latest recevied weather packets stored in our database for station/object N9MXT-13. If no packets are shown the sender has not sent any weather packets the latest 10 day(s).
| Time | Temp. | Humidity | Pressure | Rain* | Wind** | Luminosity | Snow |
|---|---|---|---|---|---|---|---|
| 1778017201 | 12.78° C | 40% | 1008.8 hPa | 0 mm | - | - | - |
| 1778014805 | 13.33° C | 38% | 1008.9 hPa | 0 mm | - | - | - |
| 1778014500 | 13.33° C | 37% | 1008.9 hPa | 0 mm | - | - | - |
| 1778011800 | 13.33° C | 38% | 1009.1 hPa | 0 mm | - | - | - |
| 1778011204 | 13.33° C | 37% | 1009.2 hPa | 0 mm | - | - | - |
| 1778010600 | 13.33° C | 39% | 1009.2 hPa | 0 mm | - | - | - |
| 1778009401 | 12.78° C | 36% | 1009.2 hPa | 0 mm | - | - | - |
| 1778007604 | 13.33° C | 34% | 1009.5 hPa | 0 mm | - | - | - |
| 1778007300 | 13.33° C | 37% | 1009.4 hPa | 0 mm | - | - | - |
| 1778006701 | 13.33° C | 39% | 1009.4 hPa | 0 mm | - | - | - |
| 1778005800 | 13.33° C | 37% | 1009.2 hPa | 0 mm | - | - | - |
| 1778005500 | 13.33° C | 37% | 1009.2 hPa | 0 mm | - | - | - |
| 1778004004 | 13.33° C | 37% | 1009.1 hPa | 0 mm | - | - | - |
| 1778000700 | 12.22° C | 39% | 1008.8 hPa | 0 mm | - | - | - |
| 1777997099 | 11.11° C | 43% | 1009 hPa | 0 mm | - | - | - |
| 1777995600 | 10.56° C | 45% | 1008.8 hPa | 0 mm | - | - | - |
| 1777990499 | 10° C | 55% | 1009 hPa | 0 mm | - | - | - |
| 1777987498 | 9.44° C | 52% | 1009.1 hPa | 0 mm | - | - | - |
| 1777985699 | 8.89° C | 56% | 1008.9 hPa | 0 mm | - | - | - |
| 1777984499 | 8.89° C | 58% | 1008.8 hPa | 0 mm | - | - | - |
| 1777983899 | 8.89° C | 58% | 1008.8 hPa | 0 mm | - | - | - |
| 1777981799 | 8.89° C | 57% | 1009 hPa | 0 mm | - | - | - |
| 1777981199 | 8.89° C | 58% | 1008.4 hPa | 0 mm | - | - | - |
| 1777979099 | 8.89° C | 59% | 1007.1 hPa | 0 mm | - | - | - |
| 1777978801 | 8.89° C | 58% | 1006.6 hPa | 0 mm | - | - | - |
* Rain latest hour (hover to see other rain measurements)
** Current wind speed in m/s (hover to see current wind gust speed)